FIN5LQ EFHK-ESSA

Flight info

Callsign FIN5LQ
Flight time 0h 40m
Altitude 34000
Route ADIV5C ADIVO Y365 POGOK DCT RUNGA N872 XILAN XILA4M
Aircraft A320/M-SDE3FGHIRWY/LB1

Departure

Time 2026-04-20 16:18
Airport Helsinki Vantaa Airport (EFHK)

Arrival

Time 2026-04-20 16:59
Airport Stockholm-Arlanda Airport (ESSA)
Time Latitude Longitude Altitude Speed Heading
2026-04-20 15:45 60.31803 24.96389 162 ft 0 kts 137°
2026-04-20 16:10 60.31805 24.96385 161 ft 3 kts 136°
2026-04-20 16:10 60.31823 24.96347 161 ft 4 kts 144°
2026-04-20 16:10 60.31843 24.96331 161 ft 4 kts 176°
2026-04-20 16:10 60.31867 24.96343 161 ft 4 kts 220°
2026-04-20 16:11 60.31879 24.96367 161 ft 0 kts 228°
2026-04-20 16:13 60.31879 24.96366 161 ft 0 kts 228°
2026-04-20 16:13 60.31868 24.96339 161 ft 2 kts 234°
2026-04-20 16:13 60.31855 24.96272 161 ft 8 kts 259°
2026-04-20 16:14 60.31868 24.96146 161 ft 11 kts 302°
2026-04-20 16:14 60.31926 24.96025 161 ft 10 kts 303°
2026-04-20 16:14 60.31898 24.95892 161 ft 12 kts 226°
2026-04-20 16:14 60.31837 24.95760 161 ft 14 kts 227°
2026-04-20 16:15 60.31767 24.95604 161 ft 16 kts 227°
2026-04-20 16:15 60.31683 24.95419 161 ft 19 kts 228°
2026-04-20 16:15 60.31584 24.95200 161 ft 23 kts 228°
2026-04-20 16:15 60.31473 24.94956 161 ft 22 kts 227°
2026-04-20 16:16 60.31404 24.94790 161 ft 9 kts 249°
2026-04-20 16:16 60.31421 24.94687 161 ft 4 kts 315°
2026-04-20 16:16 60.31445 24.94639 162 ft 6 kts 315°
2026-04-20 16:16 60.31485 24.94564 161 ft 10 kts 317°
2026-04-20 16:17 60.31518 24.94508 161 ft 3 kts 337°
2026-04-20 16:17 60.31536 24.94530 161 ft 2 kts 46°
2026-04-20 16:17 60.31549 24.94558 161 ft 3 kts 47°
2026-04-20 16:17 60.31585 24.94638 161 ft 23 kts 47°
2026-04-20 16:18 60.31857 24.95237 162 ft 92 kts 47°
2026-04-20 16:18 60.32428 24.96495 163 ft 149 kts 47°
2026-04-20 16:18 60.33147 24.98088 731 ft 149 kts 45°
2026-04-20 16:18 60.33828 24.99597 1544 ft 142 kts 45°
2026-04-20 16:19 60.34484 25.01041 2288 ft 139 kts 45°
2026-04-20 16:19 60.35149 25.02504 2861 ft 143 kts 45°
2026-04-20 16:19 60.35826 25.03993 3409 ft 148 kts 45°
2026-04-20 16:19 60.36578 25.05645 3704 ft 170 kts 45°
2026-04-20 16:20 60.37427 25.07512 4062 ft 191 kts 45°
2026-04-20 16:20 60.38372 25.09593 4390 ft 216 kts 46°
2026-04-20 16:20 60.39527 25.11768 4834 ft 239 kts 31°
2026-04-20 16:20 60.41140 25.12786 5573 ft 251 kts
2026-04-20 16:21 60.42900 25.12851 6523 ft 253 kts
2026-04-20 16:21 60.44679 25.12911 7403 ft 258 kts
2026-04-20 16:21 60.46490 25.12916 8282 ft 264 kts 357°
2026-04-20 16:21 60.48246 25.11680 9131 ft 276 kts 330°
2026-04-20 16:22 60.49600 25.08825 9975 ft 290 kts 304°
2026-04-20 16:22 60.50242 25.04878 10770 ft 303 kts 278°
2026-04-20 16:22 60.50015 25.00576 11530 ft 314 kts 254°
2026-04-20 16:22 60.49249 24.96232 11823 ft 339 kts 250°
2026-04-20 16:23 60.48369 24.91629 12159 ft 359 kts 250°
2026-04-20 16:23 60.47446 24.86866 12804 ft 367 kts 249°
2026-04-20 16:23 60.46502 24.82017 13554 ft 372 kts 249°
2026-04-20 16:23 60.45541 24.77104 14274 ft 378 kts 249°
2026-04-20 16:24 60.44565 24.72130 14940 ft 382 kts 249°
2026-04-20 16:24 60.43577 24.67094 15598 ft 387 kts 249°
2026-04-20 16:24 60.42574 24.62008 16258 ft 391 kts 249°
2026-04-20 16:24 60.41557 24.56863 16916 ft 396 kts 249°
2026-04-20 16:25 60.40527 24.51665 17534 ft 401 kts 249°
2026-04-20 16:25 60.39481 24.46407 18189 ft 405 kts 249°
2026-04-20 16:25 60.38420 24.41095 18798 ft 410 kts 248°
2026-04-20 16:25 60.37346 24.35734 19345 ft 414 kts 248°
2026-04-20 16:26 60.36257 24.30314 19896 ft 419 kts 248°
2026-04-20 16:26 60.35170 24.24907 20427 ft 423 kts 248°
2026-04-20 16:26 60.34057 24.19373 20970 ft 428 kts 248°
2026-04-20 16:26 60.32931 24.13784 21514 ft 431 kts 248°
2026-04-20 16:27 60.31790 24.08154 22088 ft 436 kts 248°
2026-04-20 16:27 60.30634 24.02469 22631 ft 440 kts 248°
2026-04-20 16:27 60.29613 23.96620 23160 ft 445 kts 256°
2026-04-20 16:27 60.28934 23.90512 23675 ft 449 kts 259°
2026-04-20 16:28 60.28274 23.84331 24124 ft 453 kts 259°
2026-04-20 16:28 60.27829 23.80217 24426 ft 455 kts 258°
2026-04-20 16:28 60.27145 23.73955 24863 ft 459 kts 258°
2026-04-20 16:28 60.26452 23.67658 25294 ft 462 kts 258°
2026-04-20 16:29 60.25754 23.61329 25718 ft 465 kts 258°
2026-04-20 16:29 60.25048 23.54948 26133 ft 468 kts 258°
2026-04-20 16:29 60.24338 23.48537 26535 ft 471 kts 258°
2026-04-20 16:29 60.23619 23.42091 26930 ft 474 kts 258°
2026-04-20 16:30 60.22892 23.35602 27319 ft 477 kts 258°
2026-04-20 16:30 60.22156 23.29076 27707 ft 479 kts 258°
2026-04-20 16:30 60.21411 23.22528 28103 ft 482 kts 258°
2026-04-20 16:30 60.20660 23.15948 28488 ft 484 kts 257°
2026-04-20 16:31 60.19904 23.09329 28885 ft 487 kts 257°
2026-04-20 16:31 60.19139 23.02675 29234 ft 490 kts 257°
2026-04-20 16:31 60.18367 22.95987 29572 ft 493 kts 257°
2026-04-20 16:31 60.17587 22.89261 29903 ft 496 kts 257°
2026-04-20 16:32 60.16797 22.82506 30223 ft 498 kts 257°
2026-04-20 16:32 60.16000 22.75713 30515 ft 501 kts 257°
2026-04-20 16:32 60.15196 22.68899 30788 ft 503 kts 257°
2026-04-20 16:32 60.14384 22.62058 31062 ft 504 kts 257°
2026-04-20 16:33 60.13569 22.55207 31333 ft 506 kts 257°
2026-04-20 16:33 60.12751 22.48335 31616 ft 506 kts 256°
2026-04-20 16:33 60.11936 22.41510 32152 ft 501 kts 256°
2026-04-20 16:33 60.11124 22.34751 32628 ft 498 kts 256°
2026-04-20 16:34 60.10321 22.28120 33045 ft 496 kts 256°
2026-04-20 16:34 60.09504 22.21415 33398 ft 495 kts 256°
2026-04-20 16:34 60.08685 22.14732 33673 ft 493 kts 256°
2026-04-20 16:34 60.07864 22.08069 33954 ft 492 kts 256°
2026-04-20 16:35 60.07041 22.01428 34253 ft 490 kts 256°
2026-04-20 16:35 60.06220 21.94819 34341 ft 488 kts 256°
2026-04-20 16:35 60.04580 21.81687 34343 ft 485 kts 256°
2026-04-20 16:36 60.02928 21.68602 34332 ft 484 kts 255°
2026-04-20 16:36 60.01274 21.55618 34355 ft 481 kts 255°
2026-04-20 16:37 59.99616 21.42677 34355 ft 480 kts 255°
2026-04-20 16:37 59.97919 21.29767 34368 ft 481 kts 254°
2026-04-20 16:38 59.96120 21.16917 34371 ft 480 kts 253°
2026-04-20 16:38 59.94307 21.04203 33882 ft 479 kts 253°
2026-04-20 16:39 59.93396 20.97808 33057 ft 480 kts 253°
2026-04-20 16:39 59.92486 20.91424 32440 ft 477 kts 253°
2026-04-20 16:39 59.91583 20.85083 31812 ft 474 kts 253°
2026-04-20 16:39 59.90685 20.78771 31199 ft 472 kts 253°
2026-04-20 16:40 59.89790 20.72488 30591 ft 471 kts 253°
2026-04-20 16:40 59.88894 20.66231 29915 ft 469 kts 253°
2026-04-20 16:40 59.87996 20.60019 29335 ft 465 kts 253°
2026-04-20 16:40 59.87102 20.53866 28717 ft 461 kts 253°
2026-04-20 16:41 59.86211 20.47755 28142 ft 458 kts 253°
2026-04-20 16:41 59.85324 20.41699 27571 ft 454 kts 253°
2026-04-20 16:41 59.84445 20.35692 27009 ft 451 kts 253°
2026-04-20 16:41 59.83568 20.29735 26460 ft 447 kts 253°
2026-04-20 16:42 59.82697 20.23824 25928 ft 444 kts 253°
2026-04-20 16:42 59.81830 20.17960 25404 ft 440 kts 253°
2026-04-20 16:42 59.80969 20.12149 24890 ft 437 kts 253°
2026-04-20 16:42 59.80109 20.06373 24377 ft 434 kts 253°
2026-04-20 16:43 59.79254 20.00650 23842 ft 431 kts 253°
2026-04-20 16:43 59.78401 19.94964 23288 ft 427 kts 253°
2026-04-20 16:43 59.77553 19.89343 22781 ft 423 kts 253°
2026-04-20 16:43 59.76719 19.83852 22277 ft 420 kts 253°
2026-04-20 16:44 59.75873 19.78324 21753 ft 417 kts 253°
2026-04-20 16:44 59.75021 19.72765 21232 ft 415 kts 253°
2026-04-20 16:44 59.74219 19.67371 20756 ft 412 kts 255°
2026-04-20 16:44 59.73460 19.61923 20273 ft 409 kts 256°
2026-04-20 16:45 59.72732 19.56495 19784 ft 406 kts 256°
2026-04-20 16:45 59.72011 19.51090 19311 ft 404 kts 256°
2026-04-20 16:45 59.71293 19.45740 18822 ft 402 kts 256°
2026-04-20 16:45 59.70565 19.40411 18358 ft 398 kts 256°
2026-04-20 16:46 59.69835 19.35138 17792 ft 397 kts 255°
2026-04-20 16:46 59.69100 19.29874 17198 ft 396 kts 255°
2026-04-20 16:46 59.68360 19.24626 16623 ft 396 kts 255°
2026-04-20 16:46 59.67618 19.19396 16107 ft 393 kts 255°
2026-04-20 16:47 59.66879 19.14203 15606 ft 391 kts 255°
2026-04-20 16:47 59.66142 19.09047 15145 ft 388 kts 254°
2026-04-20 16:47 59.65120 19.04150 14760 ft 383 kts 244°
2026-04-20 16:47 59.63928 18.99471 14366 ft 379 kts 243°
2026-04-20 16:48 59.62737 18.94867 13953 ft 374 kts 243°
2026-04-20 16:48 59.61556 18.90314 13515 ft 370 kts 243°
2026-04-20 16:48 59.60396 18.85848 13239 ft 361 kts 243°
2026-04-20 16:48 59.59261 18.81484 12979 ft 353 kts 243°
2026-04-20 16:49 59.58151 18.77222 12712 ft 345 kts 243°
2026-04-20 16:49 59.57067 18.73065 12224 ft 345 kts 243°
2026-04-20 16:49 59.55967 18.68854 11708 ft 346 kts 243°
2026-04-20 16:49 59.54864 18.64639 11203 ft 346 kts 243°
2026-04-20 16:50 59.53770 18.60459 10890 ft 339 kts 243°
2026-04-20 16:50 59.52699 18.56371 10553 ft 334 kts 243°
2026-04-20 16:50 59.51633 18.52306 10008 ft 334 kts 243°
2026-04-20 16:50 59.50563 18.48230 9398 ft 337 kts 243°
2026-04-20 16:51 59.49478 18.44125 8717 ft 339 kts 243°
2026-04-20 16:51 59.48539 18.39884 8043 ft 339 kts 257°
2026-04-20 16:51 59.48096 18.35320 7278 ft 341 kts 264°
2026-04-20 16:51 59.47872 18.30656 6520 ft 343 kts 268°
2026-04-20 16:52 59.47694 18.25966 5733 ft 344 kts 268°
2026-04-20 16:52 59.47516 18.21360 4946 ft 331 kts 268°
2026-04-20 16:52 59.47338 18.16935 4286 ft 322 kts 268°
2026-04-20 16:52 59.47157 18.12646 3633 ft 308 kts 268°
2026-04-20 16:53 59.46984 18.08618 3273 ft 293 kts 268°
2026-04-20 16:53 59.46811 18.04708 3007 ft 281 kts 268°
2026-04-20 16:53 59.46644 18.00943 2742 ft 271 kts 268°
2026-04-20 16:53 59.46485 17.97322 2550 ft 260 kts 268°
2026-04-20 16:54 59.46330 17.93894 2501 ft 242 kts 268°
2026-04-20 16:54 59.46222 17.90718 2503 ft 224 kts 278°
2026-04-20 16:54 59.46735 17.87980 2509 ft 211 kts 313°
2026-04-20 16:54 59.47878 17.86319 2508 ft 204 kts 344°
2026-04-20 16:55 59.49262 17.86105 2514 ft 201 kts 11°
2026-04-20 16:55 59.50638 17.86598 2511 ft 198 kts 12°
2026-04-20 16:55 59.51950 17.87082 2473 ft 186 kts 12°
2026-04-20 16:55 59.53190 17.87530 2368 ft 177 kts 12°
2026-04-20 16:56 59.54383 17.87960 2183 ft 171 kts 12°
2026-04-20 16:56 59.55543 17.88376 1895 ft 168 kts 11°
2026-04-20 16:56 59.56667 17.88776 1630 ft 158 kts 12°
2026-04-20 16:56 59.57705 17.89154 1392 ft 150 kts 12°
2026-04-20 16:57 59.58698 17.89505 1167 ft 140 kts 11°
2026-04-20 16:57 59.59636 17.89830 946 ft 134 kts 12°
2026-04-20 16:57 59.60559 17.90170 782 ft 137 kts 11°
2026-04-20 16:57 59.61516 17.90522 611 ft 140 kts 10°
2026-04-20 16:58 59.62468 17.90869 404 ft 138 kts
2026-04-20 16:58 59.63430 17.91213 203 ft 139 kts 10°
2026-04-20 16:58 59.64341 17.91548 110 ft 121 kts 11°
2026-04-20 16:58 59.65011 17.91789 105 ft 73 kts 11°
2026-04-20 16:59 59.65398 17.91927 106 ft 45 kts 10°
2026-04-20 16:59 59.65627 17.92037 108 ft 29 kts 22°
2026-04-20 16:59 59.65760 17.92195 107 ft 14 kts 38°
2026-04-20 16:59 59.65799 17.92335 105 ft 13 kts 98°
2026-04-20 17:00 59.65709 17.92429 104 ft 10 kts 157°
2026-04-20 17:00 59.65636 17.92476 103 ft 11 kts 165°
2026-04-20 17:00 59.65565 17.92512 104 ft 10 kts 166°
2026-04-20 17:01 59.65490 17.92566 106 ft 12 kts 153°
2026-04-20 17:01 59.65428 17.92627 110 ft 8 kts 164°
2026-04-20 17:01 59.65371 17.92564 109 ft 13 kts 225°
2026-04-20 17:01 59.65279 17.92435 110 ft 19 kts 207°
2026-04-20 17:02 59.65152 17.92364 112 ft 19 kts 190°
2026-04-20 17:02 59.65015 17.92315 112 ft 21 kts 190°
2026-04-20 17:02 59.64869 17.92263 112 ft 22 kts 189°
2026-04-20 17:02 59.64714 17.92207 112 ft 23 kts 189°
2026-04-20 17:03 59.64550 17.92148 112 ft 23 kts 190°
2026-04-20 17:03 59.64430 17.92105 114 ft 12 kts 189°
2026-04-20 17:03 59.64376 17.92168 115 ft 9 kts 117°
2026-04-20 17:03 59.64340 17.92310 115 ft 15 kts 117°
2026-04-20 17:04 59.64283 17.92522 113 ft 19 kts 117°
2026-04-20 17:04 59.64221 17.92761 111 ft 17 kts 117°
2026-04-20 17:04 59.64195 17.92900 112 ft 8 kts 81°
2026-04-20 17:04 59.64243 17.92964 112 ft 9 kts 25°
2026-04-20 17:05 59.64289 17.93007 112 ft 4 kts 26°
2026-04-20 17:05 59.64301 17.93019 112 ft 1 kts 26°